CZ-6A DEB, 54436

Orbit data source: Space-Track

CZ-6A DEB, 54436 is space debris in SSO originally from a launch on Fri, 11 Nov 2022 UTC launched from the Taiyaun Space Center, China (TSC). Debris objects in space refer to the collection of defunct objects orbiting the Earth. Examples of debris include non-operational satellites, rocket bodies, and fragments generated from explosions, collisions, or faulty payload assembly.

Loading next visibility...
Identifier
54436, 2022-151FL
Orbit
SSO
Country
Flag of CNCN / PRC
Related business
Manufacturer
SAST
Mission
Spacecraft
Bus & Motor
Unknown
Mass
Unknown
Launch date (UTC)
2022-11-11 (4 years ago)
Launch vehicle
Unknown
Launch site
Taiyaun Space Center, China (TSC)
Object type
Payload
Rocket body
Debris
Shape & HBR
Unknown shape, 0.2 m
Radar Cross Section
Medium (>0.1 m² and <1 m²)

Expand to show TLE details & history
Last TLE update: 2 days ago

TLE from 2 days ago
0 CZ-6A DEB
1 54436U 22151FL  26171.44611469  .00000212  00000-0  93498-4 0  9997
2 54436  98.5984 179.4485 0103227  56.3148 304.7825 14.30034696187839
Epoch: 2026-06-20T10:42Z
TLE epoch observation values (Epoch: 2026-06-20T10:42:24.309Z)
Latitude
-0.00006°
Longitude
110.1866°
Altitude
752.838 km
Speed
7.5 km/s
True Right ascension
11h 57m 47s
True Declination
0° 00' 00"
Sunlit
Object was in daylight at epoch
Visualization orbit readout
Latitude
Unknown
Longitude
Unknown
Altitude
Unknown
Speed
Unknown
Apparent Right ascension
Unknown
Apparent Declination
Unknown
Sunlit
N/A
Visualization observer readout
Local Sidereal Time
21:33:58
Azimuth
Unknown
Elevation
Unknown
Doppler factor
Unknown
Orbital elements
Apogee altitude
862.736 km
Perigee altitude
714.773 km
Semi-major axis
7,166.891 km
Eccentricity
0.01032
Inclination
98.5984°
RAAN
179.4485°
Arg. of periapsis
56.3148°
True anomaly
303.80381°
Mean anomaly
304.7825°
Eccentric anomaly
304.29387°
Mean motion
3.57723 °/min
Orbital period
100.64 mins
BSTAR
0.000093498
Loading maneuver chart data...
Computing Atmospheric mass density...
Loading historical data...
Loading historical data...
Loading historical data...
Loading historical data...
Loading historical data...
Loading historical data...
Loading historical data...

Documentation

Showing up to 5 results
|